Tillbaka till svenska Fidonet
English   Information   Debug  
FILM   0/18
FNEWS_PUBLISH   4482
FN_SYSOP   41747
FN_SYSOP_OLD1   71952
FTP_FIDO   0/2
FTSC_PUBLIC   0/13637
FUNNY   0/4886
GENEALOGY.EUR   0/71
GET_INFO   105
GOLDED   0/408
HAM   2512/16100
HOLYSMOKE   0/6791
HOT_SITES   0/1
HTMLEDIT   0/71
HUB203   466
HUB_100   264
HUB_400   39
HUMOR   0/29
IC   0/2851
INTERNET   0/424
INTERUSER   0/3
IP_CONNECT   719
JAMNNTPD   0/233
JAMTLAND   0/47
KATTY_KORNER   0/41
LAN   0/16
LINUX-USER   0/19
LINUXHELP   0/1155
LINUX   0/22125
LINUX_BBS   0/957
mail   18.68
mail_fore_ok   249
MENSA   0/341
MODERATOR   0/102
MONTE   0/992
MOSCOW_OKLAHOMA   0/1245
MUFFIN   0/783
MUSIC   0/321
N203_STAT   936
N203_SYSCHAT   313
NET203   321
NET204   69
NET_DEV   0/10
NORD.ADMIN   0/101
NORD.CHAT   0/2572
NORD.FIDONET   189
NORD.HARDWARE   0/28
NORD.KULTUR   0/114
NORD.PROG   0/32
NORD.SOFTWARE   0/88
NORD.TEKNIK   0/58
NORD   0/453
OCCULT_CHAT   0/93
OS2BBS   0/787
OS2DOSBBS   0/580
OS2HW   0/42
OS2INET   0/37
OS2LAN   0/134
OS2PROG   0/36
OS2REXX   0/113
OS2USER-L   207
OS2   0/4804
OSDEBATE   0/18996
PASCAL   0/490
PERL   0/457
PHP   0/45
POINTS   0/405
POLITICS   0/29554
POL_INC   0/14731
PSION   103
R20_ADMIN   1124
R20_AMATORRADIO   0/2
R20_BEST_OF_FIDONET   13
R20_CHAT   0/893
R20_DEPP   0/3
R20_DEV   399
R20_ECHO2   1399
R20_ECHOPRES   0/35
R20_ESTAT   0/719
R20_FIDONETPROG...
...RAM.MYPOINT
  0/2
R20_FIDONETPROGRAM   0/22
R20_FIDONET   0/248
R20_FILEFIND   0/24
R20_FILEFOUND   0/22
R20_HIFI   0/3
R20_INFO2   3289
R20_INTERNET   0/12940
R20_INTRESSE   0/60
R20_INTR_KOM   0/99
R20_KANDIDAT.CHAT   42
R20_KANDIDAT   28
R20_KOM_DEV   112
R20_KONTROLL   0/13340
R20_KORSET   0/18
R20_LOKALTRAFIK   0/24
R20_MODERATOR   0/1852
R20_NC   76
R20_NET200   245
R20_NETWORK.OTH...
...ERNETS
  0/13
R20_OPERATIVSYS...
...TEM.LINUX
  0/44
R20_PROGRAMVAROR   0/1
R20_REC2NEC   534
R20_SFOSM   0/341
R20_SF   0/108
R20_SPRAK.ENGLISH   0/1
R20_SQUISH   107
R20_TEST   2
R20_WORST_OF_FIDONET   12
RAR   0/9
RA_MULTI   106
RA_UTIL   0/162
REGCON.EUR   0/2056
REGCON   0/13
SCIENCE   0/1206
SF   0/239
SHAREWARE_SUPPORT   0/5146
SHAREWRE   0/14
SIMPSONS   0/169
STATS_OLD1   0/2539.065
STATS_OLD2   0/2530
STATS_OLD3   0/2395.095
STATS_OLD4   0/1692.25
SURVIVOR   0/495
SYSOPS_CORNER   0/3
SYSOP   0/84
TAGLINES   0/112
TEAMOS2   0/4530
TECH   0/2617
TEST.444   0/105
TRAPDOOR   0/19
TREK   0/755
TUB   0/290
UFO   0/40
UNIX   0/1316
USA_EURLINK   0/102
USR_MODEMS   0/1
VATICAN   0/2740
VIETNAM_VETS   0/14
VIRUS   0/378
VIRUS_INFO   0/201
VISUAL_BASIC   0/473
WHITEHOUSE   0/5187
WIN2000   0/101
WIN32   0/30
WIN95   0/4291
WIN95_OLD1   0/70272
WINDOWS   0/1517
WWB_SYSOP   0/419
WWB_TECH   0/810
ZCC-PUBLIC   0/1
ZEC   4

 
4DOS   0/134
ABORTION   0/7
ALASKA_CHAT   0/506
ALLFIX_FILE   0/1313
ALLFIX_FILE_OLD1   0/7997
ALT_DOS   0/152
AMATEUR_RADIO   0/1039
AMIGASALE   0/14
AMIGA   0/331
AMIGA_INT   0/1
AMIGA_PROG   0/20
AMIGA_SYSOP   0/26
ANIME   0/15
ARGUS   0/924
ASCII_ART   0/340
ASIAN_LINK   0/651
ASTRONOMY   0/417
AUDIO   0/92
AUTOMOBILE_RACING   0/105
BABYLON5   0/17862
BAG   135
BATPOWER   0/361
BBBS.ENGLISH   0/382
BBSLAW   0/109
BBS_ADS   0/5290
BBS_INTERNET   0/507
BIBLE   0/3563
BINKD   0/1119
BINKLEY   0/215
BLUEWAVE   0/2173
CABLE_MODEMS   0/25
CBM   0/46
CDRECORD   0/66
CDROM   0/20
CLASSIC_COMPUTER   0/378
COMICS   0/15
CONSPRCY   0/899
COOKING   34293
COOKING_OLD1   0/24719
COOKING_OLD2   0/40862
COOKING_OLD3   0/37489
COOKING_OLD4   0/35496
COOKING_OLD5   9370
C_ECHO   0/189
C_PLUSPLUS   0/31
DIRTY_DOZEN   0/201
DOORGAMES   0/2069
DOS_INTERNET   0/196
duplikat   6002
ECHOLIST   0/18295
EC_SUPPORT   0/318
ELECTRONICS   0/359
ELEKTRONIK.GER   1534
ENET.LINGUISTIC   0/13
ENET.POLITICS   0/4
ENET.SOFT   0/11701
ENET.SYSOP   33971
ENET.TALKS   0/32
ENGLISH_TUTOR   0/2000
EVOLUTION   0/1335
FDECHO   0/217
FDN_ANNOUNCE   0/7068
FIDONEWS   24213
FIDONEWS_OLD1   0/49742
FIDONEWS_OLD2   0/35949
FIDONEWS_OLD3   0/30874
FIDONEWS_OLD4   0/37224
FIDO_SYSOP   12853
FIDO_UTIL   0/180
FILEFIND   0/209
FILEGATE   0/212
Möte HAM, 16100 texter
 lista första sista föregående nästa
Text 1291, 671 rader
Skriven 2006-10-06 00:04:21 av Amsat List (1:323/120.0)
Ärende: [keps]  orb06278.amsa
=============================
[keps]  orb06278.amsa


SB KEPS @ AMSAT  $ORB06278.O
Orbital Elements  06278.OSCAR

HR AMSAT ORBITAL ELEMENTS FOR OSCAR SATELLITES
FROM WA5QGD FORT WORTH,TX October 5, 2006
Send Subscribe/unsubscribe to KEPS at 
http://www.amsat.org/mailman/listinfo/keps
BID: ORB06278.O
TO ALL RADIO AMATEURS BT

Satellite: AO-07
Catalog number: 07530
Epoch time:      06276.96278712
Element set:    0696
Inclination:      101.5570 deg
RA of node:       317.1305 deg
Eccentricity:    0.0012002
Arg of perigee:   035.7395 deg
Mean anomaly:     324.4477 deg
Mean motion:   12.53571566 rev/day
Decay rate:       -2.8e-07 rev/day^2
Epoch rev:           45901
Checksum:              295

Satellite: UO-11
Catalog number: 14781
Epoch time:      06277.61511481
Element set:    0193
Inclination:      098.2079 deg
RA of node:       290.1590 deg
Eccentricity:    0.0008141
Arg of perigee:   275.6350 deg
Mean anomaly:     084.3928 deg
Mean motion:   14.79468089 rev/day
Decay rate:       4.81e-06 rev/day^2
Epoch rev:           21194
Checksum:              318

Satellite: RS-10/11
Catalog number: 18129
Epoch time:      06278.89875203
Element set:     109
Inclination:      082.9212 deg
RA of node:       246.2467 deg
Eccentricity:    0.0012184
Arg of perigee:   138.2558 deg
Mean anomaly:     221.9530 deg
Mean motion:   13.72779178 rev/day
Decay rate:        4.9e-07 rev/day^2
Epoch rev:           96634
Checksum:              328

Satellite: RS-15
Catalog number: 23439
Epoch time:      06276.92949249
Element set:    0006
Inclination:      064.8161 deg
RA of node:       061.3490 deg
Eccentricity:    0.0166158
Arg of perigee:   235.2750 deg
Mean anomaly:     123.2427 deg
Mean motion:   11.27551874 rev/day
Decay rate:       -3.9e-07 rev/day^2
Epoch rev:           48480
Checksum:              312

Satellite: FO-29
Catalog number: 24278
Epoch time:      06276.95646699
Element set:    0339
Inclination:      098.5187 deg
RA of node:       266.4695 deg
Eccentricity:    0.0351324
Arg of perigee:   027.6758 deg
Mean anomaly:     334.2599 deg
Mean motion:   13.52924715 rev/day
Decay rate:        4.3e-07 rev/day^2
Epoch rev:           50025
Checksum:              357

Satellite: SO-33
Catalog number: 25509
Epoch time:      06276.58496650
Element set:    0760
Inclination:      031.4339 deg
RA of node:       236.4850 deg
Eccentricity:    0.0355488
Arg of perigee:   344.0937 deg
Mean anomaly:     014.8820 deg
Mean motion:   14.28122080 rev/day
Decay rate:        1.0e-07 rev/day^2
Epoch rev:           41454
Checksum:              299

Satellite: VO-52
Catalog number: 28650
Epoch time:      06277.62984515
Element set:    0446
Inclination:      097.8623 deg
RA of node:       348.6686 deg
Eccentricity:    0.0027404
Arg of perigee:   008.1039 deg
Mean anomaly:     352.0651 deg
Mean motion:   14.81181350 rev/day
Decay rate:       2.87e-06 rev/day^2
Epoch rev:           07658
Checksum:              325

/EX
SB KEPS @ AMSAT  $ORB06278.D
Orbital Elements  06278.MICROS

HR AMSAT ORBITAL ELEMENTS FOR THE MICROSATS
FROM WA5QGD FORT WORTH,TX October 5, 2006
Send SUBSCRIBE KEPS/UNSUBSCRIBE KEPS to majordomo@amsat.org only
BID: ORB06278.D
TO ALL RADIO AMATEURS BT

Satellite: AO-16
Catalog number: 20439
Epoch time:      06278.56933183
Element set:     861
Inclination:      098.1905 deg
RA of node:       282.3188 deg
Eccentricity:    0.0010073
Arg of perigee:   223.5827 deg
Mean anomaly:     136.4556 deg
Mean motion:   14.31734860 rev/day
Decay rate:        2.8e-07 rev/day^2
Epoch rev:           87211
Checksum:              312

Satellite: LO-19
Catalog number: 20442
Epoch time:      06278.58076541
Element set:     795
Inclination:      098.1873 deg
RA of node:       291.8500 deg
Eccentricity:    0.0011213
Arg of perigee:   222.5635 deg
Mean anomaly:     137.4686 deg
Mean motion:   14.31977374 rev/day
Decay rate:        4.1e-07 rev/day^2
Epoch rev:           87225
Checksum:              317

Satellite: AO-27
Catalog number: 22825
Epoch time:      06278.50344539
Element set:     512
Inclination:      098.2966 deg
RA of node:       254.9857 deg
Eccentricity:    0.0007814
Arg of perigee:   300.6094 deg
Mean anomaly:     059.4320 deg
Mean motion:   14.29185757 rev/day
Decay rate:        8.5e-07 rev/day^2
Epoch rev:           67911
Checksum:              334

Satellite: IO-26
Catalog number: 22826
Epoch time:      06278.52443689
Element set:     204
Inclination:      098.2908 deg
RA of node:       256.1773 deg
Eccentricity:    0.0008260
Arg of perigee:   297.4060 deg
Mean anomaly:     062.6291 deg
Mean motion:   14.29429611 rev/day
Decay rate:        2.6e-07 rev/day^2
Epoch rev:           67919
Checksum:              325

Satellite: PO-28
Catalog number: 22829
Epoch time:      06278.81453291
Element set:     488
Inclination:      098.2805 deg
RA of node:       257.6502 deg
Eccentricity:    0.0008834
Arg of perigee:   267.3351 deg
Mean anomaly:     092.6795 deg
Mean motion:   14.30125798 rev/day
Decay rate:        6.7e-07 rev/day^2
Epoch rev:           67945
Checksum:              351

Satellite: GO-32
Catalog number: 25397
Epoch time:      06277.73043051
Element set:    0127
Inclination:      098.4548 deg
RA of node:       330.5982 deg
Eccentricity:    0.0000388
Arg of perigee:   240.2640 deg
Mean anomaly:     119.8488 deg
Mean motion:   14.23111340 rev/day
Decay rate:       -8.4e-07 rev/day^2
Epoch rev:           42782
Checksum:              297

Satellite: MO-46
Catalog number: 26548
Epoch time:      06278.43243868
Element set:     613
Inclination:      064.5555 deg
RA of node:       250.7344 deg
Eccentricity:    0.0041952
Arg of perigee:   231.5384 deg
Mean anomaly:     128.1958 deg
Mean motion:   14.83027714 rev/day
Decay rate:       2.33e-06 rev/day^2
Epoch rev:           32575
Checksum:              319

